Showing default

OV1-14, 3174

Orbit data source: Space-Track

OV1-14, 3174 is a payload satellite owned by USAF OAR (US) that was launched on Sat, 06 Apr 1968 UTC via an ATLAS F launch vehicle from the Air Force Western Test Range (AFWTR). Payloads include a variety of satellites, spacecraft, and rockets equipped with specific instruments for various scientific and technological missions. These include communications satellites like Starlink; space stations such as the ISS; scientific satellites like the Hubble; Earth observation satellites from companies like Planet Labs, Umbra, and HawkEye 360; GPS; miniature CubeSats for education and research; and military/defense satellites.

Loading next visibility...
OV1-14 details
Identifier
3174, 1968-026B
Orbit
Active
Last TLE update14 hours ago
Origin
Flag of USUSAF OAR (US)
ManufacturerGD/Convair
MissionCivil Science
Bus & MotorOV1, Unknown motor
Mass101 kg wet, 101 kg dry
Launch date (UTC)
1968-04-06 (57 years ago)
Launch vehicle
ATLAS F
Launch site
Air Force Western Test Range (AFWTR)
Object type
Payload
Rocket body
Debris
Shape & HBRDomed Cyl, 1.4 m
Radar Cross Section0.946 m², Medium (>0.1 m² and < 1m²)

Expand to show TLE details & history

TLE from 14 hours ago
0 OV1-14
1 03174U 68026B   24356.65107670  .00000353  00000-0  63770-3 0  9996
2 03174  99.9914 194.5795 4000113 344.5131  26.9176  6.96605363438536
Epoch: 2024-12-21T15:37Z
Definitive object data (Epoch: 2024-12-21T15:37:33.026Z)
Latitude44.94902°
Longitude-140.58594°
Altitude1,785.849 km
Speed7.959 km/s
True Right ascension12h 18m 00s
True Declination44° 47' 55"
Sunlit
Object was in daylight at TLE epoch
Visualization TLE readout
Latitude56.38853°
Longitude65.00238°
Altitude7,496.586 km
Speed4.806 km/s
Apparent Right ascension23h 22m 16s
Apparent Declination52° 40' 58"
Sunlit
Object is in daylight
Visualization observer readout
Local Sidereal Time05:10:51
Azimuth314.288° NW
Elevation32.24°
Doppler factor1
Orbital elements
Apogee altitude9,832.18 km
Perigee altitude568.955 km
Semi-major axis11,578.705 km
Eccentricity0.4000113
Inclination99.9914°
RAAN194.5795°
Arg. of periapsis344.5131°
True anomaly61.24127°
Mean anomaly26.9176°
Eccentric anomaly42.36013°
Mean motion1.74202 °/min
BSTAR0.0006377
Orbital period206.66 mins
Loading maneuver chart data...
Loading historical data...
Loading historical data...
Loading historical data...
Loading historical data...
Loading historical data...
Loading historical data...
Loading historical data...
Other satellites on launch #26 in the year 1968 (1968-04-06 UTC)

OV1-14 Visibility forecast

Observer location: undefined°, undefined

Span
Click to sort rows by Start time (UTC) header in descending order
Start Az.
Max El. time (UTC)
Max El. Az.
Max El.
End time (UTC)
End Az.
34 mins2024-12-22 06:06:09.615Z314.234° NW2024-12-22 06:06:09.615Z314.234° NW28.079°2024-12-22 06:40:09.615Z276.916° WNW
18 mins2024-12-22 09:01:09.615Z22.922° NE2024-12-22 09:08:09.615Z359.326° N14.666°2024-12-22 09:19:09.615Z336.337° NNW
20 mins2024-12-22 12:14:09.615Z112.151° ESE2024-12-22 12:18:09.615Z57.76° ENE35.644°2024-12-22 12:34:09.615Z348.452° N
6 mins2024-12-22 15:44:09.615Z288.35° WNW2024-12-22 15:46:09.615Z301.244° NW12.195°2024-12-22 15:50:09.615Z320.392° NNW
94 mins2024-12-22 23:06:09.615Z23.457° NE2024-12-22 23:48:09.615Z95.566° ESE33.238°2024-12-23 00:40:09.615Z161.116° S
93 mins2024-12-23 02:27:09.615Z13.015° NNE2024-12-23 03:01:09.615Z296.624° NW44.437°2024-12-23 04:00:09.615Z221.274° SW
16 mins2024-12-23 05:50:09.615Z8.069° NNE2024-12-23 06:06:09.615Z329.893° NNW27.117°2024-12-23 06:06:09.615Z329.893° NNW
|